RH
15 13 12 12 12 13 20 28 29 24 21 24 27 26 28 30 33 37 36 34 32 32 36 38 41 46 47 43 37 36 37 37 37 37 39 40 38 35 38 41 40 41 43 40 41 42 40 41 38 36 37 37 37 37 36 34 33 33 35 37 36 34 34 36 38 40 44 44 45 47 48 49 50 50 51 53 50 43 42 44 43 41 40 40 41 39
15 13 12 11 13 14 15 22 27 24 19 21 25 25 25 26 28 33 34 32 30 31 36 38 41 45 46 45 39 36 36 39 39 37 38 40 40 38 34 33 35 38 37 36 41 41 37 40 40 36 36 34 34 35 35 35 34 35 36 36 37 37 36 37 37 37 40 41 42 43 45 46 48 50 50 48 44 40 39 39 36 35 36 37 37 35
16 14 13 11 15 17 14 18 22 21 20 21 23 23 23 23 25 29 30 30 28 28 34 37 38 43 45 45 44 37 34 39 40 37 37 38 40 40 35 32 34 36 37 37 39 38 35 35 36 35 34 33 33 33 34 35 35 35 35 35 36 37 36 35 33 32 35 36 34 33 35 37 39 40 39 37 34 32 31 30 27 26 25 24 25 26
15 14 13 11 15 19 17 16 17 16 17 21 23 21 20 19 22 28 29 30 27 24 30 36 38 46 47 45 48 42 36 37 36 36 36 37 37 38 37 37 35 35 37 35 34 37 37 33 33 33 31 31 32 32 33 35 34 36 36 35 34 34 32 30 27 26 27 27 25 24 25 27 27 26 24 25 23 22 23 22 21 23 22 20 20 21
13 11 12 14 16 16 15 14 13 14 16 19 21 19 19 18 18 23 27 30 31 26 28 33 39 49 51 49 50 46 43 41 37 37 38 37 35 35 37 38 37 35 33 32 35 39 37 33 31 31 29 30 31 31 31 32 33 36 35 34 33 31 27 26 27 26 25 24 23 23 22 21 21 20 20 21 20 19 20 19 19 22 24 24 21 21
11 10 11 14 16 13 13 15 13 14 18 18 19 19 17 16 17 20 23 29 35 31 27 28 35 49 58 58 54 48 47 46 42 41 42 40 36 34 35 37 37 37 32 31 37 39 37 36 32 29 31 30 30 31 30 31 33 35 33 31 31 31 29 29 29 26 25 24 23 23 21 20 20 20 21 22 20 21 20 20 20 21 25 24 20 22
11 10 11 13 14 13 13 15 14 14 19 19 17 19 18 16 17 18 21 28 33 31 29 29 31 43 57 58 52 48 47 46 45 43 43 42 39 34 35 36 37 38 34 31 37 39 38 38 33 30 32 31 32 33 32 32 33 34 33 33 33 32 31 28 25 22 22 23 24 22 21 21 20 20 21 22 21 23 23 22 22 22 24 22 18 20
10 10 11 12 13 13 12 15 15 14 19 22 19 20 19 18 20 20 22 28 30 28 30 32 31 35 45 48 48 50 50 48 45 40 39 39 36 33 33 35 34 36 37 34 38 40 38 37 35 32 33 35 38 38 35 34 33 33 33 33 32 32 29 24 23 24 24 24 24 22 21 21 21 21 22 21 20 22 23 23 24 24 24 23 19 18
11 12 13 13 13 12 12 15 18 15 19 25 23 21 21 20 20 22 25 28 29 29 31 34 36 39 40 38 42 48 49 50 45 38 38 38 35 32 31 34 34 33 36 37 38 40 38 37 38 36 35 38 41 40 37 36 34 34 33 30 29 28 28 26 25 28 28 26 25 24 23 22 22 23 21 20 20 22 24 24 25 25 24 23 22 21
13 13 14 13 12 14 16 20 22 18 19 24 25 24 23 21 21 25 29 29 29 32 34 35 38 43 42 37 37 40 41 45 46 43 42 39 36 33 31 33 33 31 33 35 38 40 39 38 40 40 37 38 41 40 39 38 37 36 32 28 28 29 31 30 28 31 31 28 26 26 25 23 22 22 21 20 21 23 25 24 24 25 24 24 25 24
17 14 14 14 16 19 21 22 22 20 20 24 25 26 26 25 25 29 31 30 31 34 34 32 34 38 39 37 34 35 37 39 44 47 46 39 36 35 32 32 33 32 30 32 38 41 40 40 43 43 40 39 40 40 39 39 39 36 31 28 30 31 34 32 31 33 32 28 26 25 24 23 22 21 21 22 22 23 25 24 25 25 25 26 26 26
19 15 14 15 18 23 23 22 20 18 18 22 25 26 27 28 29 31 31 33 34 32 31 28 30 33 35 34 31 32 35 36 37 40 40 40 39 37 36 34 34 34 30 30 37 43 40 39 42 45 45 42 40 39 39 39 38 37 32 31 31 31 33 33 33 33 32 28 26 24 23 23 22 22 22 23 23 23 24 24 25 25 26 26 26 27
16 15 15 15 17 20 23 22 20 18 17 21 26 27 28 29 31 31 30 33 31 28 28 27 26 28 30 31 28 29 33 35 35 33 32 38 44 41 38 37 36 37 36 33 35 41 42 40 41 45 46 44 41 41 41 38 37 37 34 32 31 30 32 36 36 33 31 29 27 25 23 22 23 23 24 24 23 24 25 25 25 25 26 26 25 27
16 17 17 15 16 18 21 22 21 20 19 21 25 27 27 27 30 31 28 30 29 25 26 26 27 28 27 27 25 24 27 30 33 31 28 35 44 43 41 39 37 38 40 38 34 36 42 42 44 46 45 47 46 42 42 39 37 37 34 30 31 32 35 38 37 33 31 29 28 26 23 24 25 24 24 25 24 24 25 26 25 26 25 25 27 27
19 22 18 14 15 16 18 21 22 22 21 22 24 26 27 25 27 29 26 25 26 23 24 26 29 29 26 27 27 24 23 24 26 27 26 31 39 44 46 43 38 36 41 42 36 34 39 40 46 49 46 49 51 43 41 40 37 35 32 29 33 37 37 38 37 33 31 30 29 28 26 25 25 24 24 25 24 23 25 26 25 26 26 27 27 26
21 24 18 15 18 17 16 21 22 22 23 22 21 23 26 24 24 25 25 26 26 26 28 30 30 29 26 26 27 26 24 22 22 22 23 27 30 37 47 47 40 36 39 44 41 37 37 38 45 51 51 54 53 46 42 41 37 34 31 29 34 38 38 39 39 35 32 31 31 30 28 26 25 25 25 26 25 24 25 26 26 27 28 28 27 24
20 23 22 19 21 19 18 22 22 20 21 21 21 22 21 21 22 24 24 26 27 26 27 27 27 28 28 26 25 26 25 22 20 19 19 23 24 28 40 47 45 40 41 47 48 41 37 39 45 51 55 57 51 44 44 43 37 33 30 31 34 37 39 40 40 38 34 32 32 31 29 27 24 24 25 25 25 26 26 27 28 29 30 30 29 27
18 21 23 22 22 19 19 23 21 19 21 21 22 22 21 22 25 25 25 28 30 28 26 25 26 28 29 28 28 29 27 24 23 21 20 21 24 27 32 40 44 43 41 46 51 46 38 38 44 51 58 60 52 44 43 43 37 33 32 33 36 38 41 42 42 40 37 34 33 33 31 28 25 24 24 25 26 26 28 29 29 29 30 31 30 30
19 20 23 23 23 22 20 22 22 20 20 21 22 22 23 25 27 26 26 29 32 31 28 26 26 26 26 27 29 31 32 30 27 24 22 20 23 28 31 34 38 40 41 43 48 50 42 37 43 51 58 61 54 45 42 43 39 34 34 37 39 41 43 44 44 43 39 36 35 34 32 28 25 23 23 25 26 27 28 29 30 31 31 31 32 34
19 22 25 24 25 24 20 21 22 22 20 20 22 24 24 24 26 27 27 28 29 29 27 25 24 24 24 25 27 31 32 29 23 21 22 20 21 26 30 34 37 39 40 38 39 43 43 42 46 49 54 58 51 43 43 46 40 34 37 40 41 43 45 45 46 44 40 37 36 36 33 28 25 23 22 25 27 28 29 29 30 31 31 31 35 38
19 21 26 26 25 26 23 20 20 22 23 20 20 23 24 23 23 26 30 30 28 26 25 25 25 24 25 26 27 29 30 26 21 21 22 21 21 23 27 33 37 36 37 36 34 39 44 47 48 47 52 56 50 43 44 47 41 34 37 41 41 44 47 47 48 47 41 38 37 37 34 30 27 26 26 27 29 29 29 28 28 29 29 32 36 38
21 21 24 26 26 27 27 22 18 20 23 23 22 23 24 23 24 27 30 29 27 25 25 27 25 24 27 28 27 28 29 26 22 22 24 24 23 23 25 33 34 29 32 38 39 40 46 49 46 44 50 54 48 42 41 42 40 35 36 40 41 45 48 48 49 48 43 38 37 37 34 29 27 28 29 30 29 29 28 27 27 27 26 30 34 36
21 20 22 25 26 28 28 23 20 20 20 22 24 23 23 23 24 27 28 26 27 28 27 26 25 26 28 28 27 27 26 24 22 22 24 27 29 28 27 33 34 26 28 37 37 34 38 42 40 36 40 46 45 41 39 39 38 37 38 40 43 47 49 49 48 47 44 40 37 37 35 29 27 27 30 31 30 29 27 27 30 32 30 29 33 35
20 21 22 24 25 27 27 23 21 23 23 23 24 23 23 24 24 26 27 26 29 31 30 30 28 28 30 29 28 28 25 24 24 23 23 25 29 31 31 32 33 27 27 32 32 31 32 35 35 31 32 38 40 39 39 40 39 38 40 42 45 48 50 50 47 45 43 42 40 39 35 30 28 28 30 32 32 30 28 28 34 38 34 31 32 36
19 21 22 25 25 25 27 26 25 26 26 24 25 23 22 23 23 25 26 28 32 34 34 34 31 31 33 31 30 30 28 26 26 26 25 23 23 27 33 35 31 27 28 29 28 29 31 32 34 32 32 36 38 39 39 39 39 40 41 44 47 49 50 50 48 44 42 42 41 40 36 30 28 29 30 31 31 30 29 30 33 35 34 35 36 37
20 22 23 24 25 25 26 28 29 30 27 22 24 24 23 22 22 23 25 28 31 33 33 33 31 32 35 34 32 33 31 28 27 27 27 25 22 22 30 37 35 31 33 33 29 28 28 30 33 34 37 39 39 40 39 38 39 40 43 47 48 49 52 50 47 44 43 42 41 39 34 30 29 30 31 32 32 32 32 32 34 36 38 38 38 38
23 24 25 23 22 22 23 26 29 31 28 24 23 22 22 22 22 23 25 26 29 32 32 32 30 30 33 35 34 34 34 31 29 27 28 28 26 22 26 34 37 37 38 37 35 35 34 32 32 35 39 41 42 41 40 39 40 42 46 48 48 53 58 54 47 44 44 43 41 37 33 30 29 30 32 33 33 33 33 34 36 38 39 38 39 40
23 23 26 25 22 20 23 25 28 29 27 25 25 23 21 22 23 23 25 26 28 31 32 33 34 33 32 31 30 31 32 32 30 28 28 27 25 24 25 29 32 37 41 39 35 37 38 36 34 35 38 42 44 43 42 43 43 44 47 48 51 59 62 55 47 44 46 46 41 36 34 31 30 32 34 34 34 33 34 36 39 41 41 41 42 41
22 22 24 25 23 20 21 23 25 25 23 23 24 24 23 22 22 24 26 26 28 30 31 34 38 39 35 32 30 29 30 31 29 27 26 26 24 23 23 26 29 33 39 41 38 36 37 36 36 37 39 42 44 44 45 46 45 46 50 54 58 60 56 50 46 46 49 47 41 38 36 31 32 35 35 35 35 35 36 39 43 45 44 43 43 41
21 23 22 22 22 21 21 21 22 23 24 25 25 25 24 24 24 25 27 27 27 29 30 33 36 37 36 34 34 33 32 31 28 27 25 24 23 23 22 25 29 30 34 39 40 39 40 38 38 40 41 42 44 45 47 47 47 50 55 58 58 56 50 46 46 47 47 43 40 38 35 32 35 37 36 36 36 37 39 42 46 47 46 43 43 43
22 22 21 22 24 26 25 23 21 24 28 28 26 24 23 24 25 26 27 27 27 28 29 31 33 34 33 33 34 34 32 30 29 28 26 24 24 23 19 21 27 31 31 34 38 41 43 42 42 42 40 41 43 47 49 49 50 52 54 54 53 51 47 45 47 47 42 39 38 36 34 34 36 37 36 36 37 39 41 44 46 47 47 45 44 45
25 24 24 25 27 28 28 27 26 28 29 27 25 23 23 24 24 24 26 28 28 29 30 32 33 33 33 34 34 33 33 32 30 29 27 26 25 23 20 22 26 29 30 30 34 40 40 40 42 43 40 39 43 48 49 50 52 53 52 52 49 46 45 45 48 48 41 38 38 35 34 35 36 36 36 39 41 42 43 45 46 46 46 45 46 46
29 28 27 29 31 29 28 30 30 30 30 28 26 25 23 23 24 24 26 28 29 30 32 33 33 33 35 37 35 33 32 29 27 26 25 25 24 22 22 22 21 21 24 24 28 36 40 39 40 41 41 39 42 45 46 49 54 54 52 50 47 44 43 46 49 47 41 38 37 34 35 36 35 34 37 41 43 44 45 45 45 44 44 44 45 47
30 30 30 31 33 30 29 31 33 32 32 30 28 27 25 24 26 27 27 29 32 34 35 34 31 31 35 35 32 31 29 26 26 26 22 19 18 17 17 17 16 17 20 22 25 34 40 40 40 42 42 41 41 43 44 48 52 53 51 49 46 44 45 47 46 41 38 37 35 33 35 36 33 33 38 43 46 46 47 48 46 44 42 42 44 46
32 33 32 32 32 30 30 35 38 36 32 29 28 30 31 30 29 30 30 31 34 35 35 35 34 34 35 33 31 29 27 27 28 25 18 16 16 17 15 15 16 17 19 22 25 31 37 39 40 43 44 42 41 43 45 49 52 53 51 48 45 46 47 44 39 36 37 37 34 33 34 33 33 36 42 47 50 49 50 51 49 48 45 42 42 45
34 35 34 34 33 31 33 39 43 41 37 34 33 33 34 34 32 32 33 34 34 35 35 36 37 37 35 33 31 28 26 27 26 21 17 16 17 19 19 18 19 19 20 22 25 28 33 35 35 40 44 42 43 45 47 50 53 53 50 47 46 47 45 39 35 35 38 37 33 31 31 33 37 44 47 49 51 52 52 52 52 52 50 45 43 44
33 34 34 35 34 34 36 38 41 44 42 40 39 36 34 34 35 35 37 37 36 36 36 37 38 37 36 32 29 27 25 25 23 19 20 22 22 22 23 21 22 23 23 24 26 28 31 34 36 41 44 45 45 46 47 50 52 50 48 46 45 43 39 35 35 35 35 35 34 33 33 34 40 47 49 50 51 52 52 51 52 53 51 47 45 45
33 33 36 37 35 36 37 35 38 43 41 40 43 40 35 34 34 35 37 37 36 35 35 36 36 37 36 32 29 28 27 24 22 21 26 30 30 28 26 25 25 25 26 26 27 28 30 32 35 40 43 45 46 47 48 49 49 47 46 44 41 36 34 35 36 35 35 37 40 42 42 42 45 49 50 51 51 51 50 51 52 52 49 47 48 49
34 33 35 38 36 36 36 35 38 40 36 37 42 41 37 37 36 36 37 38 36 34 33 35 37 37 36 35 33 32 29 25 23 26 31 34 32 30 28 27 26 25 26 27 27 29 31 32 35 39 43 44 45 47 49 47 44 44 44 41 36 34 35 36 36 36 39 44 46 46 44 43 47 50 51 51 52 52 53 52 52 52 51 49 53 54
36 36 36 38 39 38 38 37 36 35 34 35 37 38 37 39 39 39 38 36 34 34 34 36 38 37 35 34 33 32 29 27 26 30 33 33 31 30 30 28 25 25 26 27 29 32 33 34 38 42 44 44 44 45 46 44 42 42 41 38 36 37 38 37 37 40 44 47 47 44 41 43 48 51 53 56 58 58 57 53 52 54 52 50 56 60
37 37 37 39 39 38 38 37 35 35 37 37 37 37 38 39 39 39 38 35 34 35 36 37 37 36 34 34 34 34 32 31 29 29 30 31 31 32 31 28 27 27 27 30 35 37 37 39 41 41 40 41 42 41 41 41 41 40 38 35 37 39 40 39 41 45 46 45 45 43 43 46 50 52 57 62 63 59 55 54 55 54 48 48 56 59
38 38 36 36 36 35 36 35 33 36 40 40 39 39 37 38 42 43 40 38 37 36 37 37 36 35 33 33 34 34 34 34 33 32 31 31 34 35 32 29 29 29 30 34 39 40 39 40 40 39 39 39 40 41 41 41 40 39 37 36 37 40 42 43 44 44 43 43 44 44 45 48 50 54 59 63 61 58 56 57 57 52 46 49 53 52
38 38 36 34 34 34 34 32 33 39 44 41 40 41 39 40 46 47 41 38 37 36 36 38 37 36 33 33 33 33 32 33 35 35 34 35 36 36 34 32 33 33 34 37 39 38 38 39 38 37 38 40 40 41 40 38 39 39 37 37 38 40 43 46 45 43 42 43 44 45 48 50 53 59 66 64 60 60 61 62 60 53 49 53 54 50
38 37 36 37 37 36 37 39 40 44 44 41 42 46 45 43 45 44 40 38 38 37 37 36 37 36 34 33 32 32 31 33 35 35 37 38 38 37 38 39 38 37 37 39 39 38 37 39 40 40 42 43 41 42 43 43 42 42 40 39 39 39 42 46 45 43 43 44 47 51 54 53 55 62 68 64 59 62 65 65 63 57 52 53 51 49
40 39 38 39 41 42 45 49 50 47 44 43 44 47 48 46 42 39 38 38 38 38 37 36 36 37 36 34 33 32 31 33 36 38 40 41 41 41 43 44 42 40 40 43 44 42 41 42 44 45 47 48 48 50 52 51 49 48 48 48 46 45 46 47 47 46 43 45 52 57 57 55 56 62 63 60 58 62 65 66 64 58 55 55 54 51
41 40 37 38 41 43 44 47 48 46 45 45 45 45 46 46 42 38 37 39 38 38 38 37 36 37 36 34 33 31 30 34 39 41 40 43 46 46 45 45 44 42 44 47 48 46 44 47 50 50 52 55 57 57 54 51 53 57 58 56 54 52 48 47 50 49 47 49 54 56 55 57 59 61 59 57 59 65 67 65 62 56 52 53 55 54
42 38 37 38 41 44 44 44 44 44 44 44 45 45 43 42 40 39 38 40 40 39 38 37 36 36 34 32 31 30 30 35 41 43 43 47 50 49 46 46 46 45 47 49 49 47 47 50 55 59 58 57 58 59 56 54 58 61 59 56 57 55 51 50 52 51 50 51 51 52 55 58 57 55 55 56 62 69 69 63 57 53 49 49 51 54
44 39 38 38 41 44 45 44 43 41 41 43 44 42 38 37 38 39 39 39 39 37 37 35 34 33 33 33 34 33 32 37 44 48 50 52 50 49 50 53 52 51 50 50 50 52 54 55 58 61 62 60 60 60 59 57 56 56 55 55 56 56 54 52 51 49 49 50 52 53 56 57 55 54 57 61 65 65 63 58 53 48 46 46 49 54
44 43 42 40 41 45 47 46 42 39 40 44 45 40 36 36 37 37 37 37 36 36 35 33 33 34 34 36 40 39 37 42 49 52 53 53 51 53 58 60 57 55 55 55 55 57 59 59 62 64 63 62 59 56 54 53 52 53 54 55 55 53 51 48 46 46 47 49 52 54 54 53 55 58 61 63 62 59 55 51 47 42 42 44 49 54
44 46 46 42 43 48 51 48 44 43 45 47 45 41 38 39 39 38 37 36 34 35 34 33 35 37 38 40 46 45 41 42 47 49 51 53 56 59 64 64 60 58 60 61 60 60 59 59 60 60 58 55 53 51 52 53 52 52 53 53 50 48 47 46 45 45 46 48 51 52 52 53 57 59 58 58 58 55 49 45 42 43 45 48 52 56
45 45 45 46 49 52 51 45 42 44 47 47 45 43 42 42 41 38 36 35 34 34 34 34 36 38 39 40 44 48 49 49 50 52 54 57 58 60 64 65 62 60 63 63 60 58 56 54 55 56 54 52 54 55 57 58 57 55 53 49 45 45 47 49 48 46 46 49 52 54 55 55 57 57 55 54 52 49 46 44 46 48 50 51 54 59